TITAN 3C TRANSTAGE DEB, 38705

Orbit data source: Space-Track

TITAN 3C TRANSTAGE DEB, 38705 is space debris in GEO originally from a launch on Thu, 26 Sep 1968 UTC launched from the Air Force Eastern Test Range (AFETR). Debris objects in space refer to the collection of defunct objects orbiting the Earth. Examples of debris include non-operational satellites, rocket bodies, and fragments generated from explosions, collisions, or faulty payload assembly.

Not visible in the next 10 days
Identifier
38705, 1968-081AF
Orbit
GEO
Country
Flag of USUS
Related business
Manufacturer
Unknown
Mission
Spacecraft
Bus & Motor
Unknown
Mass
Unknown
Launch date (UTC)
1968-09-26 (57 years ago)
Launch vehicle
Unknown
Launch site
Air Force Eastern Test Range (AFETR)
Object type
Payload
Rocket body
Debris
Shape & HBR
Unknown
Radar Cross Section
Small (<0.1 m²)

Expand to show TLE details & history
Last TLE update: 23 hours ago

TLE from 23 hours ago
0 TITAN 3C TRANSTAGE DEB
1 38705U 68081AF  25258.84717953 -.00000281  00000-0  00000-0 0  9994
2 38705   2.5541  59.9713 0285532 359.9926   0.3926  1.02085799 72262
Epoch: 2025-09-15T20:19Z
TLE epoch observation values (Epoch: 2025-09-15T20:19:56.311Z)
Latitude
Longitude
120.35271°
Altitude
34,099.449 km
Speed
3.182 km/s
True Right ascension
04h 01m 31s
True Declination
0° 00' 00"
Sunlit
Object was in daylight at epoch
Visualization orbit readout
Latitude
Unknown
Longitude
Unknown
Altitude
Unknown
Speed
Unknown
Apparent Right ascension
Unknown
Apparent Declination
Unknown
Sunlit
N/A
Visualization observer readout
Local Sidereal Time
12:24:43
Azimuth
Unknown
Elevation
Unknown
Doppler factor
Unknown
Orbital elements
Apogee altitude
36,476.351 km
Perigee altitude
34,097.023 km
Semi-major axis
41,664.824 km
Eccentricity
0.02855
Inclination
2.5541°
RAAN
59.9713°
Arg. of periapsis
359.9926°
True anomaly
0.41585°
Mean anomaly
0.3926°
Eccentric anomaly
0.40414°
Mean motion
0.2552 °/min
Orbital period
1,410.63 mins
BSTAR
0
Loading maneuver chart data...
Computing Atmospheric mass density...

Documentation

Showing up to 5 results
|